Weather History for LEVT - October, 2012

Change the Weather History Date:

Sunday, October 14, 2012

  Actual Average Record
Temperature  
Mean Temperature 50 °F -  
Max Temperature 60 °F 59 °F 75 °F (2001)
Min Temperature 41 °F 42 °F 35 °F (1998)
Degree Days  
Heating Degree Days 14    
Moisture  
Dew Point 45 °F    
Average Humidity 80    
Maximum Humidity 100    
Minimum Humidity 58    
Precipitation  
Precipitation 0.00 in - - ()
Sea Level Pressure  
Sea Level Pressure 29.79 in    
Wind  
Wind Speed 6 mph ()    
Max Wind Speed 21 mph    
Max Gust Speed 39 mph    
Visibility 6.1 miles    
Events Rain    
Averages and records for this station are not official NWS values.
T = Trace of Precipitation, MM = Missing Value Source: Averaged Metar Reports

Daily Weather History Graph

Daily Weather History Graph

Search for Another Location

Airport or City:

Trip Planner

Search our weather history database for the weather conditions in past years. The results will help you decide how hot, cold, wet, or windy it might be!

Date:

Astronomy

Oct. 14, 2012 Rise Set
Actual Time 8:23 AM CEST 7:29 PM CEST
Civil Twilight 7:54 AM CEST 7:58 PM CEST
Nautical Twilight 7:22 AM CEST 8:30 PM CEST
Astronomical Twilight 6:49 AM CEST 9:03 PM CEST
Moon 7:04 AM CEST (10/14) 6:40 PM CEST (10/14)
Length of Visible Light 12h 03m
Length of Day
11h 06m
Waning Crescent, 2% of the Moon is Illuminated
Oct 14
Waning Crescent
Oct 15
New
Oct 22
First Quarter
Oct 29
Full
Nov 7
Last Quarter

Hourly Weather History & Observations

Time (CEST) Temp. Dew Point Humidity Pressure Visibility Wind Dir Wind Speed Gust Speed Precip Events Conditions
12:00 AM 44.6 °F 42.8 °F 93% 29.92 in 6.2 mi NNE 1.2 mph - N/A   Partly Cloudy
12:30 AM 42.8 °F 42.8 °F 100% 29.92 in 6.2 mi Variable 1.2 mph - N/A   Partly Cloudy
1:30 AM 42.8 °F 41.0 °F 93% 29.89 in 6.2 mi Variable 1.2 mph - N/A   Partly Cloudy
2:00 AM 41.0 °F 41.0 °F 100% 29.89 in 6.2 mi Calm Calm - N/A   Partly Cloudy
2:30 AM 41.0 °F 41.0 °F 100% 29.89 in 6.2 mi Calm Calm - N/A   Partly Cloudy
3:30 AM 41.0 °F 41.0 °F 100% 29.86 in 6.2 mi Calm Calm - N/A   Partly Cloudy
4:00 AM 42.8 °F 41.0 °F 93% 29.86 in 6.2 mi North 1.2 mph - N/A   Partly Cloudy
4:30 AM 50.0 °F 44.6 °F 82% 29.83 in 6.2 mi West 4.6 mph - N/A   Partly Cloudy
5:00 AM 51.8 °F 42.8 °F 71% 29.83 in 6.2 mi WSW 10.4 mph - N/A   Partly Cloudy
5:30 AM 53.6 °F 42.8 °F 67% 29.83 in 6.2 mi SSW 11.5 mph - N/A   Partly Cloudy
6:00 AM 55.4 °F 41.0 °F 58% 29.80 in 6.2 mi SW 4.6 mph - N/A   Partly Cloudy
6:30 AM 53.6 °F 44.6 °F 72% 29.80 in 6.2 mi Variable 2.3 mph - N/A Rain Light Rain
7:00 AM 53.6 °F 44.6 °F 72% 29.80 in 6.2 mi East 4.6 mph - N/A Rain Light Rain
7:30 AM 53.6 °F 42.8 °F 67% 29.80 in 6.2 mi SW 10.4 mph - N/A   Mostly Cloudy
8:00 AM 51.8 °F 42.8 °F 71% 29.77 in 6.2 mi SW 11.5 mph - N/A   Scattered Clouds
8:30 AM 51.8 °F 42.8 °F 71% 29.77 in 6.2 mi SW 12.7 mph - N/A   Scattered Clouds
9:00 AM 51.8 °F 42.8 °F 71% 29.77 in 6.2 mi SW 13.8 mph - N/A   Scattered Clouds
9:30 AM 53.6 °F 42.8 °F 67% 29.74 in 6.2 mi SW 16.1 mph - N/A   Scattered Clouds
10:00 AM 55.4 °F 44.6 °F 67% 29.77 in 6.2 mi SW 17.3 mph - N/A   Scattered Clouds
10:30 AM 55.4 °F 46.4 °F 72% 29.74 in 6.2 mi SW 19.6 mph - N/A   Scattered Clouds
11:00 AM 57.2 °F 46.4 °F 67% 29.74 in 6.2 mi SW 20.7 mph - N/A   Scattered Clouds
11:30 AM 59.0 °F 48.2 °F 67% 29.74 in 6.2 mi SW 18.4 mph - N/A   Scattered Clouds
12:00 PM 57.2 °F 48.2 °F 72% 29.74 in 6.2 mi SW 17.3 mph - N/A   Scattered Clouds
12:30 PM 59.0 °F 48.2 °F 67% 29.74 in 6.2 mi SW 15.0 mph - N/A   Scattered Clouds
1:00 PM 60.8 °F 48.2 °F 63% 29.74 in 6.2 mi SW 16.1 mph - N/A   Scattered Clouds
1:30 PM 59.0 °F 48.2 °F 67% 29.74 in 6.2 mi SW 8.1 mph - N/A   Mostly Cloudy
2:00 PM 55.4 °F 51.8 °F 88% 29.74 in 6.2 mi NNW 12.7 mph - N/A   Mostly Cloudy
2:30 PM 55.4 °F 51.8 °F 88% 29.74 in 6.2 mi NNW 8.1 mph - N/A   Mostly Cloudy
3:00 PM 55.4 °F 50.0 °F 82% 29.74 in 6.2 mi NW 2.3 mph - N/A   Mostly Cloudy
3:30 PM 55.4 °F 50.0 °F 82% 29.71 in 6.2 mi Variable 2.3 mph - N/A Rain Rain
4:00 PM 53.6 °F 51.8 °F 94% 29.71 in 6.2 mi Calm Calm - N/A   Mostly Cloudy
4:30 PM 50.0 °F 46.4 °F 87% 29.74 in 3.7 mi NNW 20.7 mph 39.1 mph N/A Rain Rain
5:00 PM 50.0 °F 46.4 °F 87% 29.74 in 5.6 mi NW 20.7 mph 32.2 mph N/A Rain Rain
5:30 PM 50.0 °F 46.4 °F 87% 29.74 in 6.2 mi NNW 13.8 mph 26.5 mph N/A   Overcast
6:00 PM 50.0 °F 46.4 °F 87% 29.74 in 6.2 mi NNW 13.8 mph 25.3 mph N/A   Mostly Cloudy
6:30 PM 50.0 °F 44.6 °F 82% 29.77 in 6.2 mi WSW 2.3 mph - N/A   Mostly Cloudy
7:00 PM 50.0 °F 44.6 °F 82% 29.77 in 6.2 mi NNW 1.2 mph - N/A   Mostly Cloudy
7:30 PM 50.0 °F 44.6 °F 82% 29.77 in 6.2 mi Variable 2.3 mph - N/A   Mostly Cloudy
8:00 PM 50.0 °F 44.6 °F 82% 29.80 in 6.2 mi Variable 2.3 mph - N/A   Mostly Cloudy
8:30 PM 50.0 °F 44.6 °F 82% 29.80 in 6.2 mi Variable 2.3 mph - N/A   Mostly Cloudy
9:00 PM 48.2 °F 42.8 °F 82% 29.80 in 6.2 mi WSW 3.5 mph - N/A   Mostly Cloudy
9:30 PM 50.0 °F 44.6 °F 82% 29.80 in 6.2 mi Variable 1.2 mph - N/A   Mostly Cloudy
10:00 PM 48.2 °F 44.6 °F 87% 29.80 in 6.2 mi Variable 2.3 mph - N/A   Scattered Clouds
10:30 PM 48.2 °F 42.8 °F 82% 29.83 in 6.2 mi WNW 5.8 mph - N/A   Mostly Cloudy
11:00 PM 46.4 °F 42.8 °F 87% 29.83 in 6.2 mi Variable 2.3 mph - N/A   Scattered Clouds